Regional Weather Roundup
Issued by NWS San Angelo, TX

Home | Current Version | Previous Version | Text Only | Print | Product List | Glossary On
Versions: 1 2 3 4 5 6 7 8 9 10 11 12 13 14 15 16 17 18 19 20 21 22 23 24 25 26 27 28 29 30 31 32 33 34 35 36 37 38 39 40 41 42 43 44 45 46 47 48 49 50
000
ASUS44 KSJT 300910
RWRSJT
WEST CENTRAL TEXAS REGIONAL WEATHER ROUNDUP
NATIONAL WEATHER SERVICE SAN ANGELO TX
400 AM CDT THU JUL 30 2015

NOTE: "FAIR" INDICATES FEW OR NO CLOUDS BELOW 12,000 FEET WITH NO
SIGNIFICANT WEATHER AND/OR OBSTRUCTIONS TO VISIBILITY.

TXZ049-054-064>066-071>073-076>078-098-099-113-114-127-128-139-140-
154-155-168>170-301000
...LOCATIONS ACROSS WEST CENTRAL TEXAS...

CITY           SKY/WX    TMP DP  RH WIND       PRES   REMARKS
SAN ANGELO     CLEAR     80  61  52 S8        30.09R
ABILENE        CLEAR     77  62  59 SE7       30.09R
DYESS AFB      CLEAR     77  64  63 S3        30.08R
JUNCTION       CLEAR     80  68  66 S3        30.09F
SWEETWATER     PTCLDY    78  60  53 S8        30.14R
BROWNWOOD      MOCLDY    75  64  69 CALM      30.08S
COLEMAN        SUNNY     75  64  67 S3        30.10R
SONORA         CLEAR     79  68  69 CALM      30.16R
OZONA          FAIR      77  59  53 SE3       30.14S
BRADY          CLEAR     79  66  65 SE3       30.09S
$$

TEXAS PANHANDLE/OKLAHOMA PANHANDLE

CITY           SKY/WX    TMP DP  RH WIND       PRES   REMARKS
AMARILLO       PTCLDY    69  67  93 NE6       30.23S
BORGER         CLOUDY    70  67  90 NE7       30.22R
CANADIAN       CLOUDY    71  68  90 NE5       30.17S
DALHART        CLOUDY    70  67  90 SE5       30.30R
DUMAS          CLOUDY    67  65  94 NE5       30.26R
GUYMON         NOT AVBL
HEREFORD       PTSUNNY   71  70  95 MISG      30.24S
PAMPA          PTSUNNY   69  67  94 E8        30.22S FOG
PERRYTON       NOT AVBL
$$

SOUTHERN PANHANDLE/SOUTH PLAINS/ROLLING PLAINS

CITY           SKY/WX    TMP DP  RH WIND       PRES   REMARKS
LUBBOCK        PTCLDY    74  64  71 E7        30.17S
SNYDER         MOCLDY    80  62  55 SE6       30.13R
CHILDRESS      PTCLDY    77  67  71 NE3       30.10S
SEMINOLE       MOSUNNY   72  60  66 S3        30.18S
$$

PERMIAN BASIN

CITY           SKY/WX    TMP DP  RH WIND       PRES   REMARKS
MIDLAND        PTCLDY    79  59  50 S5        30.13S
ODESSA         PTCLDY    80  53  39 SE6       30.15S
WINK           CLEAR     79  53  40 SE5       30.11S
$$

FAR WEST/SOUTHWEST MOUNTAINS/TRANS PECOS

CITY           SKY/WX    TMP DP  RH WIND       PRES   REMARKS
ALPINE         MOSUNNY   74  54  49 S5        30.28S
DRYDEN           N/A     79  57  46 W3        30.07F
EL PASO        CLOUDY    74  64  71 S20G25    30.22R THUNDER
FORT STOCKTON  CLEAR     76  56  49 S12       30.12F
GUADALUPE PASS PTCLDY    73  53  49 NE7       30.30R
MARFA          CLOUDY    68  55  64 NE3       30.26S
PECOS          SUNNY     79  53  41 E5        30.09S
$$

DALLAS/FORT WORTH METROPLEX

CITY           SKY/WX    TMP DP  RH WIND       PRES   REMARKS
DFW AIRPORT    CLEAR     82  66  58 CALM      30.03F
FTW MEACHAM    CLEAR     85  64  49 CALM      30.04S
DAL-EXECUTIVE  CLEAR     77  66  68 SE3       30.04S
GRAND PRAIRIE  CLEAR     82  67  60 CALM      30.05S
ADDISON        CLEAR     86  65  48 SE3       30.06S
MESQUITE       SUNNY     77  65  65 CALM      30.04S
LANCASTER      SUNNY     75  60  59 CALM      30.05S
$$

NORTH CENTRAL TEXAS

CITY           SKY/WX    TMP DP  RH WIND       PRES   REMARKS
SHRMAN/DENISON SUNNY     78  68  72 CALM      30.07S
GAINESVILLE    CLEAR     75  66  75 CALM      30.08S
BRIDGEPORT     NOT AVBL
DENTON         CLEAR     76  68  76 CALM      30.04S
WAXAHACHIE     SUNNY     75  67  77 CALM      30.05F
GRANBURY       SUNNY     78  67  69 CALM      30.06S
$$

WESTERN NORTH TEXAS

CITY           SKY/WX    TMP DP  RH WIND       PRES   REMARKS
WICHITA FALLS  CLEAR     76  66  71 CALM      30.06R
VERNON         SUNNY     77  64  63 NE3       30.08R
BRECKENRIDGE   SUNNY     80  63  55 S7        30.06S
COMANCHE       CLEAR     76  66  72 S6        30.08S
$$

CENTRAL AND SOUTH CENTRAL TEXAS

CITY           SKY/WX    TMP DP  RH WIND       PRES   REMARKS
AUSTIN/BERGSTM PTCLDY    76  72  87 CALM      30.04F
WACO           CLEAR     77  68  73 S7        30.04R
HILLSBORO      SUNNY     80  62  55 SE3       30.05S
TEMPLE         CLEAR     77  64  65 SE3       30.05S
KILLEEN-GRAY   CLEAR     81  69  67 VRB6      30.05S
FORT HOOD      CLEAR     81  69  68 VRB3      30.04S
GEORGETOWN     CLEAR     79  70  73 SW5       30.04S
LAGO VISTA     FAIR      81  66  61 SW7       30.08S
SAN MARCOS     CLEAR     75  72  88 SW3       30.05F
NEW BRAUNFELS  CLEAR     74  71  91 W5        30.04F
RANDOLPH AFB   CLEAR     74  71  90 CALM      30.05F
SAN ANTONIO    CLEAR     78  69  73 S3        30.06F
STINSON        CLEAR     76  72  87 CALM      30.03F
PLEASANTON     NOT AVBL
LA GRANGE      CLEAR     76  75  95 CALM      30.02S
GIDDINGS       SUNNY     77  72  85 CALM      30.08S
$$

EAST TEXAS

CITY           SKY/WX    TMP DP  RH WIND       PRES   REMARKS
PARIS          CLEAR     79  68  69 N5        30.05S
CLARKSVILLE    NOT AVBL
TYLER          CLEAR     81  69  67 CALM      30.03F
LONGVIEW       CLEAR     80  74  81 CALM      30.02F
PALESTINE      SUNNY     75  70  84 CALM      30.05S
NACOGDOCHES    CLEAR     73  70  88 CALM      30.02S
$$

TEXAS HILL COUNTRY AND EDWARDS PLATEAU

CITY           SKY/WX    TMP DP  RH WIND       PRES   REMARKS
LLANO          SUNNY     77  66  69 CALM      30.10S
HORSESHOE BAY  FAIR      79  65  63 CALM      30.06F
KERRVILLE      CLEAR     74  69  85 SE3       30.10F
FREDERICKSBRG  CLEAR     74  66  75 CALM      30.09F
ROCKSPRINGS    SUNNY     75  68  78 SE7       30.15S
HONDO          CLEAR     74  69  85 NE6       30.08S
UVALDE         SUNNY     74  69  82 NE3       30.06S
DEL RIO        CLEAR     82  70  66 E7        30.03R
$$

SOUTHEAST TEXAS

CITY           SKY/WX    TMP DP  RH WIND       PRES   REMARKS
COLLEGE STN    CLEAR     79  73  82 CALM      30.04S
CALDWELL       SUNNY     75  75 100 CALM      30.07S
CROCKETT       SUNNY     77  73  88 CALM      30.06F
BRENHAM        CLEAR     80  76  87 CALM      30.04S
HUNTSVILLE     CLEAR     80  74  81 SW3       30.04S
CONROE         PTCLDY    80  73  79 W3        30.03F
HOUSTON BUSH   PTCLDY    81  76  84 W3        30.02S
HOUSTON HOBBY  PTCLDY    81  76  84 W6        30.01S
PERLAND        CLEAR     79  76  90 CALM      30.03S
WHARTON        SUNNY     77  75  95 CALM      30.03S
$$

THE UPPER TEXAS COAST

CITY           SKY/WX    TMP DP  RH WIND       PRES   REMARKS
ORANGE         PTSUNNY   81  81 100 CALM      30.01S
PORT ARTHUR    MOCLDY    80  78  94 CALM      29.99F
GALVESTON      MOCLDY    83  78  85 W9        30.02S
ANGLETON       CLEAR     78  76  93 CALM      30.01F FOG
BAY CITY       SUNNY     78  77  99 CALM      30.01F
$$

TEXAS COASTAL BEND, RIO GRANDE PLAINS DEEP SOUTH TEXAS

CITY           SKY/WX    TMP DP  RH WIND       PRES   REMARKS
VICTORIA       CLEAR     76  76 100 CALM      30.03S FOG
BEEVILLE       FOG       69  69 100 CALM      30.02F VSB 3/4
ROCKPORT       CLEAR     77  74  90 CALM      30.01S FOG
PORT ARANSAS   SUNNY     80  78  94 SW5       30.01S
PORT LAVACA    SUNNY     75  73  94 CALM      30.02S
CORPUS CHRISTI PTCLDY    73  72  94 CALM      30.01F FOG
KINGSVILLE NAS FOG       74  74 100 CALM      30.01F VSB 1
COTULLA        CLEAR     78  72  81 SE7       30.02F
LAREDO         CLEAR     78  71  79 SE8       30.03F
BROWNSVILLE    CLEAR     78  76  93 CALM      30.00F
PORT ISABEL    CLEAR     76  74  93 S5        29.99F
HEBBRONVILLE     N/A     73  72  95 CALM      30.04S FOG
MCALLEN        CLEAR     80  75  84 SE3       30.01S
WESLACO        CLEAR     78  74  88 SE5       30.00F
FALFURRIAS     SUNNY     75  73  94 CALM      30.01S
EDINBURG       SUNNY     77  73  89 CALM      30.01F FOG
$$


USA.gov is the U.S. government's official web portal to all federal, state and local government web resources and services.